Flag for U.S.A. Weather past 2 weeks in Santa Rosa, California, U.S.A.

Now
43 °F

Scattered clouds.


Feels Like: 43 °F
Forecast: 42 / 63 °F
Wind: No wind

Location: Santa Rosa Sonoma County Airport

Current Time: Jan 29, 2015 at 9:10:55 AM

Latest Report: Jan 29, 2015 at 8:53 AM


Visibility: 5 mi

Pressure: 30.15 "Hg

Humidity: 100%

Dew point: 43 °F

Location of Santa RosaLocation

Historic Weather in Santa Rosa — Graph

°F

Santa Rosa temperature yesterday

Maximum temperature yesterday: 70 °F (at 2:53 PM)
Minimum temperature yesterday: 45 °F (at 11:53 PM)
Average temperature yesterday: 54 °F

Past Weeks' High & Low Weather Summary

 TemperatureHumidityPressure
High70 °F (Jan 23, 2:53 PM)100% (Jan 14, 10:00 PM)30.37 "Hg (Jan 14, 10:00 PM)
Low34 °F (Jan 14, 7:53 AM)47% (Jan 23, 2:53 PM)29.93 "Hg (Jan 26, 3:53 PM)
Average50 °F89%30.17 "Hg
* Reported Jan 14 7:53 AM — Jan 29 7:53 AM, Santa Rosa, Weather by CustomWeather, © 2014

Note: Actual official high and low records may vary slightly from our data, if they occured in-between our weather recording intervals... More about our weather records

Advertising

Santa Rosa weather history for previous 24 hours

 ConditionsComfort  
Time TempWeatherWind HumidityBarometerVisibility
7:53 AM
Jan 29
38 °FFog.No wind100%30.14 "Hg0 mi
6:53 AM38 °FFog.No wind97%30.13 "Hg1 mi
6:01 AM39 °FFog.No wind100%30.13 "Hg1 mi
5:04 AM39 °FFog.No wind93%30.13 "Hg1 mi
4:56 AM39 °FFog.No wind93%30.13 "Hg1 mi
3:53 AM43 °FFog.No wind97%30.12 "Hg1 mi
2:53 AM43 °FClear.No wind93%30.13 "Hg8 mi
1:53 AM43 °FFog.No wind97%30.13 "Hg1 mi
12:53 AM45 °FFog.No wind97%30.14 "Hg6 mi
11:53 PM
Jan 28
45 °FClear.No wind97%30.14 "Hg7 mi
10:53 PM47 °FClear.No wind93%30.14 "Hg9 mi
9:53 PM47 °FClear.No wind93%30.14 "Hg8 mi
8:53 PM50 °FClear.No wind86%30.14 "Hg10 mi
7:53 PM52 °FClear.No wind80%30.13 "Hg10 mi
6:53 PM56 °FClear.No wind72%30.12 "Hg10 mi
5:53 PM57 °FClear.6 mph72%30.11 "Hg10 mi
4:53 PM64 °FScattered clouds.7 mph56%30.11 "Hg10 mi
3:53 PM68 °FScattered clouds.8 mph55%30.11 "Hg10 mi
2:53 PM70 °FScattered clouds.5 mph49%30.12 "Hg10 mi
1:53 PM68 °FScattered clouds.No wind53%30.14 "Hg10 mi
12:53 PM66 °FScattered clouds.No wind56%30.17 "Hg10 mi
11:53 AM63 °FSunny.No wind60%30.20 "Hg10 mi
10:53 AM59 °FScattered clouds.No wind72%30.23 "Hg10 mi
9:53 AM55 °FScattered clouds.No wind80%30.23 "Hg10 mi
Weather by CustomWeather, © 2014

See weather overviewHow to use our weather pages